KDFW

Dallas-Fort Worth International Airport

Airport
ICAO code
KDFW
IATA Code
DFW
Summary
ICAO Region
NAM
ICAO Territory
Location

Dallas, Texas,

Serving
Dallas
Elevation
607 ft
Coordinates
32° 53' 55" N , 97° 2' 25" W
KCC
Airport LOS
Parallel Runway Operation
Metar
Observation
KDFW 062053Z 30006KT 10SM FEW033 BKN150 BKN250 25/16 A2989 RMK AO2 SLP115 T02500161 55012
Station
Dallas / Fort Worth, Dallas / Fort Worth International Airport
Date/Time
2022-12-06 20:53:00
Wind direction
300°
Wind speed
06 kts
Lowest cloud amount
few clouds
Temperature
25°C
Dew point
16.1°C
Humidity
57%
Weather condition
n/a

Description

Large International airport serving the cities of Dallas and Fort Worth, Texas, USA.

Climatology

Humid “subtropical” climate (Köppen climate classification Cfa) - characterized by hot, humid summers and cool winters. Significant amounts of precipitation occur in all seasons in most areas. Winter rainfall (and sometimes snowfall) is associated with large storms that the westerlies steer from west to east. Most summer rainfall occurs during thunderstorms and occasional tropical storms (hurricanes).

Airport map

Aerial View

SKYbrary Partners:

Safety knowledge contributed by: